Location: Prague
(50.0830°N, 14.4670°E)
Time: 14:49:27
(UTC+01:00)

ITUPSAT 1 - Pass Details

Date: 28 November 2021
Orbit: 700 x 713 km, 98.6° (Epoch: 26 January)

Event Time Altitude Azimuth Distance (km) Brightness Sun altitude
Rises 05:33:38 0° 128° (SE) 3,090 ? -18.8°
Reaches altitude 10° 05:36:11 10° 115° (ESE) 2,178 ? -18.4°
Maximum altitude 05:40:04 26° 61° (ENE) 1,401 ? -17.8°
Drops below altitude 10° 05:43:58 10° 6° (N) 2,197 ? -17.2°
Sets 05:46:33 0° 354° (N) 3,123 ? -16.8°
